Find STARLINK-37535

NORAD ID: 799500916 Int'l Des: 2026-127Y Constellation: starlink operational

Current View

Loading 3D Globe...

About STARLINK-37535

Description loading...

Upcoming Passes

Passes for default location (London). Set your location on the main map for personalized predictions.

Altitude History

Loading altitude history...

Two-Line Element Set

1 99999C 2026127Y 26159.87826389 .01035600 00000-0 101390-3 0 1599
2 99999 53.1615 305.0729 0009009 291.4383 186.4620 16.10099659 16
Epoch: Jun 8, 2026 • Age: 5 hours